SLINGSHOT 1 (52947 NORAD) Tracking and Keplerian Element Data

This shows tracking and keplerian element data for the satellite.

Feedback or suggestion? Click here.




ElementValue
Catalog52947
NameSLINGSHOT 1
Epoch Orbit1316
Epoch Day269.57101643
Epoch Year2022
RAAN8.9666
Inclination44.9931
Eccentricity0.0004527
Argument of Perigee331.533
Mean Anonmoly28.5304
Mean Motion15.24938554
Decay Rate8.366E-05
L11 52947U 22074D 22269.57101643 .00008366 00000+0 34073-3 0 9992
L22 52947 44.9931 8.9666 0004527 331.5330 28.5304 15.24938554 13169

Live tracking and technical data element details for SLINGSHOT 1 (NORAD 52947). SLINGSHOT 1 can be tracked NOW for your location showing map with azimuth and elevation plus other details from your city location.

Track the satellite on the map from your city or location and see movement details for azimuth, elevation, latitude, longitude, range, height, and movement on the map or in text.







IsCatalogInMostPopularTable: catalog: 52947, numindb: 8
Update: records affected: 1



GetName: 52947 SLINGSHOT 1

Hit Count: updated at: Thu, 06 Oct 2022 05:15:46 GMT